Location: *
(49.8044°N, 4.0558°E)
Time: 18:16:40
(UTC+00:00)

Cosmos 1934 Rocket - Pass Details

Date: 09 April 2020
Orbit: 937 x 1000 km, 83.0° (Epoch: 24 May)

Event Time Altitude Azimuth Distance (km) Brightness Sun altitude
Rises 22:02:06 0° 348° (NNW) 3,699 8.1 -28.0°
Reaches altitude 10° 22:04:39 10° 346° (NNW) 2,738 7.2 -28.2°
Maximum altitude 22:10:51 68° 265° (W) 1,036 4.1 -28.6°
Enters shadow 22:11:29 64° 230° (SW) 1,066 4.0 -28.7°
